This demonstration page uses our WeatherBlox Daily Observations layout. Learn more.

Left ArrowRight Arrow

38.20091, -84.87328

Hourly Observations for April 27, 2016

Temp ( °F °C ) Dew Point ( °F °C ) Humidity (%) Winds ( mph kmh ) Pressure ( in mb ) Visibility ( mi km ) Precip ( " mm )
12:27 am 00:27 Cloudy 62 16.7 59 15 90 90 ESE 8 13 29.80 1009 10 16 0.00 0.03
12:53 am 00:53 Cloudy 62 16.7 59 15 90 90 SE 9 15 29.79 1009 10 16 0.00 0.03
1:53 am 01:53 Cloudy 62 16.7 59 15 90 90 SE 7 11 29.78 1009 10 16 0.00 0.03
2:53 am 02:53 Cloudy 62 16.7 59 15 90 90 ESE 6 9 29.75 1007 10 16 0.01 0.25
3:31 am 03:31 Cloudy 62 16.7 59 15 90 90 SSE 7 11 29.77 1008 10 16 0.00 0.00
3:53 am 03:53 Cloudy 62 16.7 59 15 90 90 S 8 13 29.76 1008 10 16 0.00 0.00
4:36 am 04:36 Cloudy 62 16.7 58 14.4 86 86 SE 5 7 29.80 1009 10 16 0.00 0.03
4:53 am 04:53 Cloudy with Light Rain 62 16.7 58 14.4 86 86 S 3 6 29.79 1009 9 14 0.01 0.25
5:53 am 05:53 Cloudy 61 16.1 59 15 93 93 SSE 7 11 29.78 1009 10 16 0.02 0.51
6:53 am 06:53 Mostly Cloudy 62 16.7 58 14.4 86 86 SSE 10 17 29.80 1009 10 16 0.00 0.00
7:28 am 07:28 Mostly Cloudy 62 16.7 59 15 90 90 S 9 15 29.83 1010 10 16 0.00 0.00
7:53 am 07:53 Mostly Sunny 63 17.2 59 15 87 87 S 8 13 29.81 1010 10 16 0.00 0.00
8:53 am 08:53 Mostly Sunny 65 18.3 60 15.6 84 84 SSE 12 19 29.80 1009 10 16 0.00 0.00
9:53 am 09:53 Cloudy 66 18.9 60 15.6 81 81 SSE 3 6 29.80 1009 10 16 0.00 0.00
10:22 am 10:22 Cloudy 66 18.9 61 16.1 84 84 SSW 6 9 29.77 1008 10 16 0.00 0.00
10:53 am 10:53 Mostly Cloudy 69 20.6 62 16.7 78 78 S 7 11 29.78 1009 10 16 0.00 0.00
11:26 am 11:26 Cloudy 70 21.1 62 16.7 76 76 SSW 6 9 29.77 1008 10 16 0.00 0.00
11:38 am 11:38 Cloudy 70 21.1 62 16.7 76 76 SW 6 9 29.77 1008 10 16 0.00 0.00
11:53 am 11:53 Cloudy 70 21.1 62 16.7 76 76 S 5 7 29.79 1009 10 16 0.00 0.00
12:53 pm 12:53 Cloudy 69 20.6 61 16.1 76 76 SSW 8 13 29.80 1009 10 16 0.00 0.00
1:29 pm 13:29 Cloudy with Light Rain 68 20 61 16.1 78 78 SSW 9 15 29.80 1009 7 11 0.00 0.03
1:53 pm 13:53 Cloudy with Light Rain 67 19.4 62 16.7 84 84 Calm 29.79 1009 5 8 0.03 0.76
2:53 pm 14:53 Cloudy with Light Rain 66 18.9 62 16.7 87 87 SSW 7 11 29.83 1010 4 6 0.10 2.54
3:00 pm 15:00 Cloudy with Light Rain 66 18.9 62 16.7 87 87 SSW 7 11 29.80 1009 5 8 0.01 0.25
3:08 pm 15:08 Cloudy with Nearby Thunderstorms 65 18.3 62 16.7 90 90 SW 7 11 29.80 1009 3 5 0.03 0.76
3:17 pm 15:17 Cloudy with Rain 65 18.3 62 16.7 90 90 SW 7 11 29.80 1009 3 5 0.05 1.27
3:42 pm 15:42 Cloudy with Heavy Rain 65 18.3 62 16.7 90 90 Calm 29.80 1009 2 3 0.12 3.05
3:49 pm 15:49 Cloudy with Nearby Thunderstorms 64 18 63 17 94 94 E 3 6 29.83 1010 2 3 0.14 3.56
3:53 pm 15:53 Cloudy with Nearby Thunderstorms 65 18.3 62 16.7 90 90 E 3 6 29.81 1010 4 6 0.15 3.81
4:03 pm 16:03 Cloudy with Rain 65 18.3 62 16.7 90 90 SE 6 9 29.80 1009 5 8 0.02 0.51
4:53 pm 16:53 Mostly Cloudy 65 18.3 62 16.7 90 90 ESE 6 9 29.79 1009 10 16 0.05 1.27
5:31 pm 17:31 Mostly Cloudy 67 19.4 63 17.2 87 87 ESE 8 13 29.74 1007 10 16 0.00 0.00
5:45 pm 17:45 Mostly Cloudy 66 18.9 63 17.2 90 90 SE 7 11 29.74 1007 10 16 0.00 0.00
5:53 pm 17:53 Partly Cloudy 66 18.9 63 17.2 90 90 SE 8 13 29.77 1008 10 16 0.00 0.00
6:53 pm 18:53 Partly Cloudy 66 18.9 62 16.7 87 87 E 9 15 29.73 1007 10 16 0.01 0.25
7:53 pm 19:53 Mostly Cloudy 65 18.3 62 16.7 90 90 ESE 5 7 29.76 1008 10 16 0.00 0.00
8:53 pm 20:53 Mostly Clear 63 17.2 60 15.6 90 90 ENE 5 7 29.75 1007 10 16 0.00 0.00
9:53 pm 21:53 Mostly Cloudy 64 17.8 60 15.6 87 87 E 5 7 29.76 1008 10 16 0.00 0.00
10:28 pm 22:28 Mostly Cloudy with Nearby Thunderstorms 64 17.8 60 15.6 87 87 E 3 6 29.74 1007 10 16 0.00 0.00
10:36 pm 22:36 Mostly Cloudy with Thunderstorms 64 17.8 59 15 84 84 W 15 24 29.83 1010 3 4 0.12 3.05
10:41 pm 22:41 Mostly Cloudy with Strong Thunderstorms 62 16.7 58 14.4 86 86 W 20 31 29.83 1010 1 2 0.29 7.37
10:48 pm 22:48 Cloudy with Strong Thunderstorms 63 17 57 14 83 83 W 13 20 29.85 1011 1 2 0.37 9.40
10:51 pm 22:51 Cloudy with Strong Thunderstorms 63 17 57 14 83 83 W 12 19 29.85 1011 2 3 0.38 9.65
10:53 pm 22:53 Cloudy with Thunderstorms 62 16.7 58 14.4 86 86 W 9 15 29.83 1010 3 5 0.39 9.91
11:30 pm 23:30 Cloudy with Nearby Thunderstorms 62 16.7 58 14.4 86 86 WNW 3 6 29.83 1010 4 6 0.08 2.03
11:38 pm 23:38 Cloudy with Rain 62 16.7 58 14.4 86 86 WNW 3 6 29.83 1010 3 4 0.12 3.05
11:53 pm 23:53 Cloudy with Rain 62 16.7 59 15 90 90 NNE 3 6 29.80 1009 3 4 0.20 5.08

Powered by AerisWeather